Time,TemperatureF,DewpointF,PressureIn,WindDirection,WindDirectionDegrees,WindSpeedMPH,WindSpeedGustMPH,Humidity,HourlyPrecipIn,Conditions,Clouds,dailyrainin,SoftwareType,DateUTC
2013-01-17 00:02:00,24.1,13.6,30.43,South,186,1.0,4.0,64,0.00,,,0.00,meteohub,2013-01-17 07:02:00,
2013-01-17 00:07:00,24.1,13.6,30.43,South,186,0.0,3.0,64,0.00,,,0.00,meteohub,2013-01-17 07:07:00,
2013-01-17 00:12:00,24.1,13.6,30.43,South,186,0.0,4.0,64,0.00,,,0.00,meteohub,2013-01-17 07:12:00,
2013-01-17 00:17:00,23.9,13.5,30.43,South,186,0.0,4.0,64,0.00,,,0.00,meteohub,2013-01-17 07:17:00,
2013-01-17 00:22:00,23.9,13.5,30.43,South,186,2.0,4.0,64,0.00,,,0.00,meteohub,2013-01-17 07:22:00,
2013-01-17 00:27:00,23.9,13.5,30.43,South,186,1.0,3.0,64,0.00,,,0.00,meteohub,2013-01-17 07:27:00,
2013-01-17 00:32:00,23.7,13.3,30.43,South,186,0.0,4.0,64,0.00,,,0.00,meteohub,2013-01-17 07:32:00,
2013-01-17 00:37:00,23.7,13.3,30.43,South,186,0.0,4.0,64,0.00,,,0.00,meteohub,2013-01-17 07:37:00,
2013-01-17 00:42:00,23.7,13.3,30.43,South,186,0.0,2.0,64,0.00,,,0.00,meteohub,2013-01-17 07:42:00,
2013-01-17 00:47:00,23.5,13.1,30.43,South,186,2.0,2.0,64,0.00,,,0.00,meteohub,2013-01-17 07:47:00,
2013-01-17 00:52:00,23.4,12.9,30.43,South,186,1.0,3.0,64,0.00,,,0.00,meteohub,2013-01-17 07:52:00,
2013-01-17 00:57:00,23.4,12.9,30.43,South,186,2.0,3.0,64,0.00,,,0.00,meteohub,2013-01-17 07:57:00,
2013-01-17 01:02:00,23.2,13.1,30.43,South,186,3.0,4.0,65,0.00,,,0.00,meteohub,2013-01-17 08:02:00,
2013-01-17 01:07:00,23.4,12.9,30.44,South,186,2.0,5.0,64,0.00,,,0.00,meteohub,2013-01-17 08:07:00,
2013-01-17 01:17:00,23.5,13.5,30.44,South,186,3.0,5.0,65,0.00,,,0.00,meteohub,2013-01-17 08:17:00,
2013-01-17 01:22:00,23.7,13.3,30.44,South,186,2.0,4.0,64,0.00,,,0.00,meteohub,2013-01-17 08:22:00,
2013-01-17 01:27:00,24.1,13.6,30.44,South,186,3.0,4.0,64,0.00,,,0.00,meteohub,2013-01-17 08:27:00,
2013-01-17 01:32:00,24.4,13.6,30.44,South,186,3.0,4.0,63,0.00,,,0.00,meteohub,2013-01-17 08:32:00,
2013-01-17 01:37:00,24.6,13.8,30.44,SSW,195,3.0,5.0,63,0.00,,,0.00,meteohub,2013-01-17 08:37:00,
2013-01-17 01:42:00,25.2,14.0,30.44,SSW,198,3.0,6.0,62,0.00,,,0.00,meteohub,2013-01-17 08:42:00,
2013-01-17 01:47:00,25.7,14.2,30.44,SSW,207,3.0,6.0,61,0.00,,,0.00,meteohub,2013-01-17 08:47:00,
2013-01-17 01:52:00,26.1,14.0,30.45,SSW,207,3.0,6.0,60,0.00,,,0.00,meteohub,2013-01-17 08:52:00,
2013-01-17 01:57:00,26.2,13.8,30.45,SSW,207,3.0,5.0,59,0.00,,,0.00,meteohub,2013-01-17 08:57:00,
2013-01-17 02:02:00,26.4,14.0,30.45,SSW,210,2.0,5.0,59,0.00,,,0.00,meteohub,2013-01-17 09:02:00,
2013-01-17 02:07:00,26.6,13.8,30.44,SSW,210,2.0,5.0,58,0.00,,,0.00,meteohub,2013-01-17 09:07:00,
2013-01-17 02:12:00,26.6,13.8,30.44,SSW,210,2.0,5.0,58,0.00,,,0.00,meteohub,2013-01-17 09:12:00,
2013-01-17 02:17:00,26.4,13.6,30.44,SSW,210,3.0,5.0,58,0.00,,,0.00,meteohub,2013-01-17 09:17:00,
2013-01-17 02:22:00,26.2,13.5,30.44,SSW,210,3.0,5.0,58,0.00,,,0.00,meteohub,2013-01-17 09:22:00,
2013-01-17 02:27:00,26.2,13.5,30.44,SSW,210,2.0,5.0,58,0.00,,,0.00,meteohub,2013-01-17 09:27:00,
2013-01-17 02:32:00,26.4,13.6,30.44,SSW,210,2.0,5.0,58,0.00,,,0.00,meteohub,2013-01-17 09:32:00,
2013-01-17 02:37:00,26.6,13.8,30.44,SW,215,4.0,5.0,58,0.00,,,0.00,meteohub,2013-01-17 09:37:00,
2013-01-17 02:42:00,26.8,13.6,30.44,SW,215,1.0,5.0,57,0.00,,,0.00,meteohub,2013-01-17 09:42:00,
2013-01-17 02:47:00,26.6,13.5,30.45,SW,215,0.0,5.0,57,0.00,,,0.00,meteohub,2013-01-17 09:47:00,
2013-01-17 02:52:00,26.1,12.9,30.45,SW,215,2.0,5.0,57,0.00,,,0.00,meteohub,2013-01-17 09:52:00,
2013-01-17 03:02:00,25.3,13.1,30.45,SW,215,2.0,2.0,59,0.00,,,0.00,meteohub,2013-01-17 10:02:00,
2013-01-17 03:07:00,24.8,12.6,30.45,SW,215,1.0,3.0,59,0.00,,,0.00,meteohub,2013-01-17 10:07:00,
2013-01-17 03:12:00,24.4,12.6,30.45,SW,215,3.0,3.0,60,0.00,,,0.00,meteohub,2013-01-17 10:12:00,
2013-01-17 03:17:00,23.9,12.4,30.45,SW,215,2.0,3.0,61,0.00,,,0.00,meteohub,2013-01-17 10:17:00,
2013-01-17 03:22:00,23.5,12.4,30.45,SW,215,1.0,3.0,62,0.00,,,0.00,meteohub,2013-01-17 10:22:00,
2013-01-17 03:27:00,23.4,12.2,30.45,SW,215,0.0,3.0,62,0.00,,,0.00,meteohub,2013-01-17 10:27:00,
2013-01-17 03:32:00,23.0,11.8,30.45,SW,215,0.0,3.0,62,0.00,,,0.00,meteohub,2013-01-17 10:32:00,
2013-01-17 03:37:00,22.6,12.0,30.45,SW,215,1.0,3.0,63,0.00,,,0.00,meteohub,2013-01-17 10:37:00,
2013-01-17 03:42:00,22.5,12.2,30.45,SW,215,0.0,3.0,64,0.00,,,0.00,meteohub,2013-01-17 10:42:00,
2013-01-17 03:47:00,22.1,11.8,30.46,SW,215,0.0,3.0,64,0.00,,,0.00,meteohub,2013-01-17 10:47:00,
2013-01-17 03:52:00,21.9,11.7,30.46,SW,215,0.0,3.0,64,0.00,,,0.00,meteohub,2013-01-17 10:52:00,
2013-01-17 04:02:00,21.4,11.1,30.46,SW,215,2.0,2.0,64,0.00,,,0.00,meteohub,2013-01-17 11:02:00,
2013-01-17 04:07:00,21.4,11.8,30.46,SW,215,2.0,3.0,66,0.00,,,0.00,meteohub,2013-01-17 11:07:00,
2013-01-17 04:12:00,21.0,11.5,30.46,SW,215,0.0,3.0,66,0.00,,,0.00,meteohub,2013-01-17 11:12:00,
2013-01-17 04:17:00,21.0,11.5,30.46,SW,215,2.0,3.0,66,0.00,,,0.00,meteohub,2013-01-17 11:17:00,
2013-01-17 04:22:00,21.0,11.8,30.46,SW,215,2.0,3.0,67,0.00,,,0.00,meteohub,2013-01-17 11:22:00,
2013-01-17 04:27:00,21.0,11.5,30.47,SW,215,0.0,3.0,66,0.00,,,0.00,meteohub,2013-01-17 11:27:00,
2013-01-17 04:32:00,20.8,11.3,30.47,SW,215,0.0,3.0,66,0.00,,,0.00,meteohub,2013-01-17 11:32:00,
2013-01-17 04:37:00,20.7,11.1,30.47,SW,215,0.0,3.0,66,0.00,,,0.00,meteohub,2013-01-17 11:37:00,
2013-01-17 04:42:00,20.3,11.1,30.47,SW,215,1.0,2.0,67,0.00,,,0.00,meteohub,2013-01-17 11:42:00,
2013-01-17 04:47:00,20.1,10.9,30.47,SW,215,0.0,2.0,67,0.00,,,0.00,meteohub,2013-01-17 11:47:00,
2013-01-17 04:52:00,19.9,11.1,30.47,SW,215,1.0,2.0,68,0.00,,,0.00,meteohub,2013-01-17 11:52:00,
2013-01-17 04:57:00,19.9,11.1,30.47,SW,215,2.0,3.0,68,0.00,,,0.00,meteohub,2013-01-17 11:57:00,
2013-01-17 05:02:00,19.9,11.1,30.47,SW,215,0.0,3.0,68,0.00,,,0.00,meteohub,2013-01-17 12:02:00,
2013-01-17 05:07:00,19.9,11.1,30.47,SW,215,2.0,4.0,68,0.00,,,0.00,meteohub,2013-01-17 12:07:00,
2013-01-17 05:12:00,19.8,10.9,30.47,SW,215,3.0,5.0,68,0.00,,,0.00,meteohub,2013-01-17 12:12:00,
2013-01-17 05:17:00,19.9,11.5,30.47,SW,215,2.0,5.0,69,0.00,,,0.00,meteohub,2013-01-17 12:17:00,
2013-01-17 05:22:00,19.9,11.5,30.48,SW,215,2.0,4.0,69,0.00,,,0.00,meteohub,2013-01-17 12:22:00,
2013-01-17 05:27:00,20.1,11.3,30.48,SW,215,2.0,4.0,68,0.00,,,0.00,meteohub,2013-01-17 12:27:00,
2013-01-17 05:32:00,20.1,11.3,30.48,SW,215,3.0,3.0,68,0.00,,,0.00,meteohub,2013-01-17 12:32:00,
2013-01-17 05:37:00,20.1,11.3,30.48,SW,215,1.0,3.0,68,0.00,,,0.00,meteohub,2013-01-17 12:37:00,
2013-01-17 05:42:00,20.1,10.9,30.48,SW,215,2.0,4.0,67,0.00,,,0.00,meteohub,2013-01-17 12:42:00,
2013-01-17 05:47:00,19.9,11.1,30.48,SW,215,2.0,4.0,68,0.00,,,0.00,meteohub,2013-01-17 12:47:00,
2013-01-17 05:52:00,19.9,11.1,30.48,SW,215,1.0,4.0,68,0.00,,,0.00,meteohub,2013-01-17 12:52:00,
2013-01-17 05:57:00,19.9,11.1,30.48,SW,215,2.0,4.0,68,0.00,,,0.00,meteohub,2013-01-17 12:57:00,
2013-01-17 06:02:00,19.9,11.1,30.48,SW,215,0.0,4.0,68,0.00,,,0.00,meteohub,2013-01-17 13:02:00,
2013-01-17 06:07:00,19.8,10.9,30.48,SW,215,2.0,2.0,68,0.00,,,0.00,meteohub,2013-01-17 13:07:00,
2013-01-17 06:12:00,19.6,11.1,30.48,SW,215,3.0,3.0,69,0.00,,,0.00,meteohub,2013-01-17 13:12:00,
2013-01-17 06:17:00,19.8,10.9,30.48,SW,215,2.0,3.0,68,0.00,,,0.00,meteohub,2013-01-17 13:17:00,
2013-01-17 06:22:00,19.8,10.9,30.48,SW,215,2.0,3.0,68,0.00,,,0.00,meteohub,2013-01-17 13:22:00,
2013-01-17 06:27:00,19.8,10.9,30.48,SW,215,1.0,3.0,68,0.00,,,0.00,meteohub,2013-01-17 13:27:00,
2013-01-17 06:32:00,19.6,10.4,30.49,SW,215,2.0,3.0,67,0.00,,,0.00,meteohub,2013-01-17 13:32:00,
2013-01-17 06:37:00,19.4,10.2,30.49,SW,215,2.0,3.0,67,0.00,,,0.00,meteohub,2013-01-17 13:37:00,
2013-01-17 06:42:00,19.2,10.4,30.49,SW,215,2.0,3.0,68,0.00,,,0.00,meteohub,2013-01-17 13:42:00,
2013-01-17 06:47:00,19.0,10.2,30.49,SW,215,1.0,3.0,68,0.00,,,0.00,meteohub,2013-01-17 13:47:00,
2013-01-17 06:52:00,19.0,10.2,30.49,SW,215,2.0,3.0,68,0.00,,,0.00,meteohub,2013-01-17 13:52:00,
2013-01-17 06:57:00,19.0,10.6,30.49,SW,215,1.0,3.0,69,0.00,,,0.00,meteohub,2013-01-17 13:57:00,
2013-01-17 07:02:00,19.0,10.2,30.49,SW,215,2.0,4.0,68,0.00,,,0.00,meteohub,2013-01-17 14:02:00,
2013-01-17 07:07:00,18.9,10.0,30.49,SW,215,2.0,4.0,68,0.00,,,0.00,meteohub,2013-01-17 14:07:00,
2013-01-17 07:12:00,18.9,10.0,30.49,SW,215,3.0,4.0,68,0.00,,,0.00,meteohub,2013-01-17 14:12:00,
2013-01-17 07:17:00,18.9,10.0,30.49,SW,215,2.0,4.0,68,0.00,,,0.00,meteohub,2013-01-17 14:17:00,
2013-01-17 07:22:00,19.0,10.2,30.49,SW,215,3.0,4.0,68,0.00,,,0.00,meteohub,2013-01-17 14:22:00,
2013-01-17 07:27:00,19.2,10.4,30.50,SW,215,3.0,4.0,68,0.00,,,0.00,meteohub,2013-01-17 14:27:00,
2013-01-17 07:32:00,19.4,10.6,30.50,SW,215,1.0,4.0,68,0.00,,,0.00,meteohub,2013-01-17 14:32:00,
2013-01-17 07:37:00,19.4,10.2,30.50,SW,215,2.0,4.0,67,0.00,,,0.00,meteohub,2013-01-17 14:37:00,
2013-01-17 07:42:00,19.9,11.1,30.50,SW,215,2.0,4.0,68,0.00,,,0.00,meteohub,2013-01-17 14:42:00,
2013-01-17 07:47:00,20.3,11.1,30.50,SW,215,2.0,4.0,67,0.00,,,0.00,meteohub,2013-01-17 14:47:00,
2013-01-17 07:52:00,21.0,11.5,30.50,SW,215,3.0,5.0,66,0.00,,,0.00,meteohub,2013-01-17 14:52:00,
2013-01-17 07:57:00,21.4,11.5,30.51,SW,215,2.0,5.0,65,0.00,,,0.00,meteohub,2013-01-17 14:57:00,
2013-01-17 08:02:00,22.1,11.8,30.51,SW,215,4.0,6.0,64,0.00,,,0.00,meteohub,2013-01-17 15:02:00,
2013-01-17 08:07:00,22.8,11.8,30.51,SW,215,3.0,6.0,62,0.00,,,0.00,meteohub,2013-01-17 15:07:00,
2013-01-17 08:12:00,23.7,11.8,30.51,SW,215,3.0,5.0,60,0.00,,,0.00,meteohub,2013-01-17 15:12:00,
2013-01-17 08:17:00,24.6,12.0,30.51,SW,215,1.0,5.0,58,0.00,,,0.00,meteohub,2013-01-17 15:17:00,
2013-01-17 08:22:00,25.5,12.0,30.51,SW,215,2.0,5.0,56,0.00,,,0.00,meteohub,2013-01-17 15:22:00,
2013-01-17 08:27:00,26.2,12.2,30.51,SW,215,3.0,4.0,55,0.00,,,0.00,meteohub,2013-01-17 15:27:00,
2013-01-17 08:32:00,27.1,12.2,30.51,SW,215,0.0,4.0,53,0.00,,,0.00,meteohub,2013-01-17 15:32:00,
2013-01-17 08:37:00,28.0,12.7,30.52,SW,215,0.0,4.0,52,0.00,,,0.00,meteohub,2013-01-17 15:37:00,
2013-01-17 08:42:00,29.1,13.6,30.52,SW,215,0.0,4.0,52,0.00,,,0.00,meteohub,2013-01-17 15:42:00,
2013-01-17 08:47:00,29.7,14.5,30.52,SW,215,0.0,2.0,53,0.00,,,0.00,meteohub,2013-01-17 15:47:00,
2013-01-17 08:52:00,30.0,15.4,30.52,SW,215,0.0,2.0,54,0.00,,,0.00,meteohub,2013-01-17 15:52:00,
2013-01-17 08:57:00,30.4,15.3,30.53,SW,215,2.0,2.0,53,0.00,,,0.00,meteohub,2013-01-17 15:57:00,
2013-01-17 09:02:00,30.9,14.9,30.53,SW,215,2.0,3.0,51,0.00,,,0.00,meteohub,2013-01-17 16:02:00,
2013-01-17 09:07:00,31.3,14.7,30.53,South,191,0.0,3.0,50,0.00,,,0.00,meteohub,2013-01-17 16:07:00,
2013-01-17 09:12:00,31.8,15.3,30.53,SSE,152,4.0,4.0,50,0.00,,,0.00,meteohub,2013-01-17 16:12:00,
2013-01-17 09:17:00,32.2,15.1,30.53,ESE,108,2.0,4.0,49,0.00,,,0.00,meteohub,2013-01-17 16:17:00,
2013-01-17 09:22:00,32.5,15.1,30.53,ESE,108,1.0,4.0,48,0.00,,,0.00,meteohub,2013-01-17 16:22:00,
2013-01-17 09:27:00,32.7,15.3,30.53,ESE,108,0.0,4.0,48,0.00,,,0.00,meteohub,2013-01-17 16:27:00,
2013-01-17 09:32:00,32.7,14.7,30.53,ESE,108,0.0,2.0,47,0.00,,,0.00,meteohub,2013-01-17 16:32:00,
2013-01-17 09:37:00,33.4,14.9,30.53,ESE,109,2.0,2.0,46,0.00,,,0.00,meteohub,2013-01-17 16:37:00,
2013-01-17 09:42:00,34.3,14.7,30.53,ESE,108,1.0,4.0,44,0.00,,,0.00,meteohub,2013-01-17 16:42:00,
2013-01-17 09:47:00,35.1,14.9,30.53,ESE,108,0.0,4.0,43,0.00,,,0.00,meteohub,2013-01-17 16:47:00,
2013-01-17 09:52:00,35.6,13.6,30.53,ESE,108,1.0,4.0,40,0.00,,,0.00,meteohub,2013-01-17 16:52:00,
2013-01-17 09:57:00,36.0,12.7,30.53,ESE,108,0.0,4.0,38,0.00,,,0.00,meteohub,2013-01-17 16:57:00,
2013-01-17 10:02:00,36.7,13.5,30.53,ESE,108,0.0,4.0,38,0.00,,,0.00,meteohub,2013-01-17 17:02:00,
2013-01-17 10:07:00,37.0,13.1,30.53,ESE,108,1.0,4.0,37,0.00,,,0.00,meteohub,2013-01-17 17:07:00,
2013-01-17 10:12:00,37.6,13.6,30.52,ESE,108,1.0,2.0,37,0.00,,,0.00,meteohub,2013-01-17 17:12:00,
2013-01-17 10:17:00,38.1,13.5,30.52,ESE,108,0.0,2.0,36,0.00,,,0.00,meteohub,2013-01-17 17:17:00,
2013-01-17 10:22:00,39.0,14.4,30.52,ESE,107,1.0,2.0,36,0.00,,,0.00,meteohub,2013-01-17 17:22:00,
2013-01-17 10:27:00,40.3,14.7,30.51,ESE,107,1.0,4.0,35,0.00,,,0.00,meteohub,2013-01-17 17:27:00,
2013-01-17 10:32:00,41.2,14.2,30.51,ESE,107,0.0,4.0,33,0.00,,,0.00,meteohub,2013-01-17 17:32:00,
2013-01-17 10:37:00,41.5,13.8,30.51,ESE,107,2.0,4.0,32,0.00,,,0.00,meteohub,2013-01-17 17:37:00,
2013-01-17 10:42:00,42.4,14.0,30.51,ESE,107,0.0,2.0,31,0.00,,,0.00,meteohub,2013-01-17 17:42:00,
2013-01-17 10:47:00,43.5,14.2,30.50,ESE,107,0.0,2.0,30,0.00,,,0.00,meteohub,2013-01-17 17:47:00,
2013-01-17 10:52:00,44.4,12.6,30.50,SE,130,2.0,4.0,27,0.00,,,0.00,meteohub,2013-01-17 17:52:00,
2013-01-17 10:57:00,45.1,14.0,30.49,SE,130,1.0,5.0,28,0.00,,,0.00,meteohub,2013-01-17 17:57:00,
2013-01-17 11:02:00,45.7,13.6,30.49,SE,130,0.0,5.0,27,0.00,,,0.00,meteohub,2013-01-17 18:02:00,
2013-01-17 11:07:00,46.0,14.0,30.49,SE,130,1.0,4.0,27,0.00,,,0.00,meteohub,2013-01-17 18:07:00,
2013-01-17 11:12:00,46.8,12.7,30.48,SE,130,2.0,4.0,25,0.00,,,0.00,meteohub,2013-01-17 18:12:00,
2013-01-17 11:17:00,47.1,13.1,30.48,SE,146,1.0,5.0,25,0.00,,,0.00,meteohub,2013-01-17 18:17:00,
2013-01-17 11:22:00,47.7,12.6,30.48,SE,146,2.0,5.0,24,0.00,,,0.00,meteohub,2013-01-17 18:22:00,
2013-01-17 11:27:00,47.8,12.7,30.47,SE,146,0.0,5.0,24,0.00,,,0.00,meteohub,2013-01-17 18:27:00,
2013-01-17 11:32:00,48.2,13.1,30.47,SE,146,0.0,4.0,24,0.00,,,0.00,meteohub,2013-01-17 18:32:00,
2013-01-17 11:37:00,48.6,13.5,30.46,SSE,147,1.0,5.0,24,0.00,,,0.00,meteohub,2013-01-17 18:37:00,
2013-01-17 11:42:00,48.7,13.5,30.46,SSE,147,4.0,6.0,24,0.00,,,0.00,meteohub,2013-01-17 18:42:00,
2013-01-17 11:47:00,49.1,12.9,30.45,SSE,147,1.0,6.0,23,0.00,,,0.00,meteohub,2013-01-17 18:47:00,
2013-01-17 11:52:00,48.9,11.7,30.45,SE,141,1.0,6.0,22,0.00,,,0.00,meteohub,2013-01-17 18:52:00,
2013-01-17 11:57:00,48.7,12.6,30.45,SE,138,4.0,6.0,23,0.00,,,0.00,meteohub,2013-01-17 18:57:00,
2013-01-17 12:02:00,49.1,11.8,30.44,ESE,109,2.0,6.0,22,0.00,,,0.00,meteohub,2013-01-17 19:02:00,
2013-01-17 12:07:00,49.3,10.9,30.44,SSE,151,1.0,7.0,21,0.00,,,0.00,meteohub,2013-01-17 19:07:00,
2013-01-17 12:17:00,49.3,8.8,30.43,ESE,123,2.0,7.0,19,0.00,,,0.00,meteohub,2013-01-17 19:17:00,
2013-01-17 12:22:00,49.3,8.8,30.42,ESE,110,5.0,9.0,19,0.00,,,0.00,meteohub,2013-01-17 19:22:00,
2013-01-17 12:27:00,49.5,10.0,30.42,SSE,155,8.0,9.0,20,0.00,,,0.00,meteohub,2013-01-17 19:27:00,
2013-01-17 12:32:00,49.8,8.1,30.42,SE,144,1.0,8.0,18,0.00,,,0.00,meteohub,2013-01-17 19:32:00,
2013-01-17 12:37:00,50.2,8.2,30.41,ESE,122,4.0,9.0,18,0.00,,,0.00,meteohub,2013-01-17 19:37:00,
2013-01-17 12:42:00,50.2,8.2,30.41,SSE,147,1.0,9.0,18,0.00,,,0.00,meteohub,2013-01-17 19:42:00,
2013-01-17 12:47:00,50.4,8.4,30.40,East,84,4.0,9.0,18,0.00,,,0.00,meteohub,2013-01-17 19:47:00,
2013-01-17 12:52:00,49.8,8.1,30.40,SE,126,2.0,8.0,18,0.00,,,0.00,meteohub,2013-01-17 19:52:00,
2013-01-17 12:57:00,49.5,9.0,30.40,SE,124,4.0,8.0,19,0.00,,,0.00,meteohub,2013-01-17 19:57:00,
2013-01-17 13:02:00,49.8,9.1,30.39,ESE,104,6.0,8.0,19,0.00,,,0.00,meteohub,2013-01-17 20:02:00,
2013-01-17 13:07:00,49.8,9.1,30.39,SE,143,0.0,9.0,19,0.00,,,0.00,meteohub,2013-01-17 20:07:00,
2013-01-17 13:12:00,50.2,9.5,30.39,ESE,120,5.0,9.0,19,0.00,,,0.00,meteohub,2013-01-17 20:12:00,
2013-01-17 13:17:00,50.2,9.5,30.39,ESE,107,7.0,8.0,19,0.00,,,0.00,meteohub,2013-01-17 20:17:00,
2013-01-17 13:22:00,50.2,9.5,30.39,SE,132,7.0,8.0,19,0.00,,,0.00,meteohub,2013-01-17 20:22:00,
2013-01-17 13:27:00,50.4,9.7,30.38,SE,130,8.0,11.0,19,0.00,,,0.00,meteohub,2013-01-17 20:27:00,
2013-01-17 13:32:00,50.4,8.4,30.38,ESE,118,7.0,12.0,18,0.00,,,0.00,meteohub,2013-01-17 20:32:00,
2013-01-17 13:37:00,50.2,9.5,30.37,ESE,121,7.0,12.0,19,0.00,,,0.00,meteohub,2013-01-17 20:37:00,
2013-01-17 13:42:00,50.4,8.4,30.37,ESE,113,7.0,12.0,18,0.00,,,0.00,meteohub,2013-01-17 20:42:00,
2013-01-17 13:47:00,50.7,8.8,30.37,East,98,4.0,11.0,18,0.00,,,0.00,meteohub,2013-01-17 20:47:00,
2013-01-17 13:52:00,50.5,8.6,30.37,ESE,111,6.0,9.0,18,0.00,,,0.00,meteohub,2013-01-17 20:52:00,
2013-01-17 13:57:00,50.7,8.8,30.37,SE,139,9.0,12.0,18,0.00,,,0.00,meteohub,2013-01-17 20:57:00,
2013-01-17 14:02:00,51.1,9.0,30.37,ESE,115,5.0,13.0,18,0.00,,,0.00,meteohub,2013-01-17 21:02:00,
2013-01-17 14:07:00,50.7,8.8,30.37,ESE,111,7.0,13.0,18,0.00,,,0.00,meteohub,2013-01-17 21:07:00,
2013-01-17 14:12:00,50.4,8.4,30.37,ESE,115,6.0,13.0,18,0.00,,,0.00,meteohub,2013-01-17 21:12:00,
2013-01-17 14:17:00,50.5,8.6,30.37,ESE,119,2.0,12.0,18,0.00,,,0.00,meteohub,2013-01-17 21:17:00,
2013-01-17 14:22:00,50.5,8.6,30.37,ESE,109,7.0,12.0,18,0.00,,,0.00,meteohub,2013-01-17 21:22:00,
2013-01-17 14:27:00,50.7,8.8,30.36,South,169,4.0,11.0,18,0.00,,,0.00,meteohub,2013-01-17 21:27:00,
2013-01-17 14:32:00,50.7,8.8,30.36,SSE,162,6.0,12.0,18,0.00,,,0.00,meteohub,2013-01-17 21:32:00,
2013-01-17 14:37:00,50.5,9.9,30.36,ESE,109,5.0,12.0,19,0.00,,,0.00,meteohub,2013-01-17 21:37:00,
2013-01-17 14:42:00,50.7,8.8,30.36,SE,142,5.0,12.0,18,0.00,,,0.00,meteohub,2013-01-17 21:42:00,
2013-01-17 14:47:00,50.7,8.8,30.36,SSE,150,2.0,11.0,18,0.00,,,0.00,meteohub,2013-01-17 21:47:00,
2013-01-17 14:52:00,50.7,8.8,30.36,SE,126,8.0,8.0,18,0.00,,,0.00,meteohub,2013-01-17 21:52:00,
2013-01-17 14:57:00,50.4,9.7,30.36,ESE,121,6.0,11.0,19,0.00,,,0.00,meteohub,2013-01-17 21:57:00,
2013-01-17 15:02:00,50.2,9.5,30.36,SE,146,6.0,11.0,19,0.00,,,0.00,meteohub,2013-01-17 22:02:00,
2013-01-17 15:07:00,50.2,9.5,30.36,ESE,110,2.0,11.0,19,0.00,,,0.00,meteohub,2013-01-17 22:07:00,
2013-01-17 15:12:00,50.2,9.5,30.35,SE,126,6.0,9.0,19,0.00,,,0.00,meteohub,2013-01-17 22:12:00,
2013-01-17 15:17:00,50.2,9.5,30.35,SSE,168,2.0,9.0,19,0.00,,,0.00,meteohub,2013-01-17 22:17:00,
2013-01-17 15:22:00,49.8,9.1,30.36,South,179,5.0,9.0,19,0.00,,,0.00,meteohub,2013-01-17 22:22:00,
2013-01-17 15:27:00,49.8,9.1,30.36,SSE,156,4.0,9.0,19,0.00,,,0.00,meteohub,2013-01-17 22:27:00,
2013-01-17 15:32:00,49.8,9.1,30.35,SE,142,6.0,9.0,19,0.00,,,0.00,meteohub,2013-01-17 22:32:00,
2013-01-17 15:37:00,49.8,9.1,30.35,SE,144,1.0,9.0,19,0.00,,,0.00,meteohub,2013-01-17 22:37:00,
2013-01-17 15:42:00,49.6,9.0,30.35,SE,141,4.0,8.0,19,0.00,,,0.00,meteohub,2013-01-17 22:42:00,
2013-01-17 15:47:00,49.5,10.0,30.35,SE,142,6.0,8.0,20,0.00,,,0.00,meteohub,2013-01-17 22:47:00,
2013-01-17 15:52:00,49.3,9.9,30.36,SE,136,8.0,8.0,20,0.00,,,0.00,meteohub,2013-01-17 22:52:00,
2013-01-17 15:57:00,49.3,10.9,30.35,SE,128,1.0,8.0,21,0.00,,,0.00,meteohub,2013-01-17 22:57:00,
2013-01-17 16:02:00,49.1,10.8,30.35,SE,134,6.0,8.0,21,0.00,,,0.00,meteohub,2013-01-17 23:02:00,
2013-01-17 16:07:00,48.9,10.8,30.35,SE,139,4.0,8.0,21,0.00,,,0.00,meteohub,2013-01-17 23:07:00,
2013-01-17 16:12:00,48.7,11.7,30.36,SE,139,1.0,8.0,22,0.00,,,0.00,meteohub,2013-01-17 23:12:00,
2013-01-17 16:17:00,48.6,11.5,30.36,SE,139,0.0,8.0,22,0.00,,,0.00,meteohub,2013-01-17 23:17:00,
2013-01-17 16:22:00,48.4,11.3,30.36,SE,139,2.0,6.0,22,0.00,,,0.00,meteohub,2013-01-17 23:22:00,
2013-01-17 16:27:00,48.0,10.9,30.35,SE,139,1.0,5.0,22,0.00,,,0.00,meteohub,2013-01-17 23:27:00,
2013-01-17 16:32:00,47.7,11.7,30.36,SE,139,0.0,4.0,23,0.00,,,0.00,meteohub,2013-01-17 23:32:00,
2013-01-17 16:37:00,47.1,11.1,30.36,SE,139,0.0,4.0,23,0.00,,,0.00,meteohub,2013-01-17 23:37:00,
2013-01-17 16:42:00,46.8,10.9,30.36,SE,139,2.0,4.0,23,0.00,,,0.00,meteohub,2013-01-17 23:42:00,
2013-01-17 16:47:00,46.0,11.3,30.35,SE,139,0.0,2.0,24,0.00,,,0.00,meteohub,2013-01-17 23:47:00,
2013-01-17 16:52:00,45.5,10.8,30.36,SE,139,1.0,2.0,24,0.00,,,0.00,meteohub,2013-01-17 23:52:00,
2013-01-17 16:57:00,45.0,11.3,30.36,SE,139,2.0,2.0,25,0.00,,,0.00,meteohub,2013-01-17 23:57:00,
2013-01-17 17:02:00,44.2,10.6,30.36,SE,140,4.0,4.0,25,0.00,,,0.00,meteohub,2013-01-18 00:02:00,
2013-01-17 17:07:00,43.5,10.9,30.36,WSW,252,2.0,5.0,26,0.00,,,0.00,meteohub,2013-01-18 00:07:00,
2013-01-17 17:12:00,43.0,10.4,30.36,WSW,252,2.0,5.0,26,0.00,,,0.00,meteohub,2013-01-18 00:12:00,
2013-01-17 17:17:00,42.3,10.6,30.36,WSW,252,2.0,5.0,27,0.00,,,0.00,meteohub,2013-01-18 00:17:00,
2013-01-17 17:22:00,41.4,10.8,30.36,WSW,252,1.0,4.0,28,0.00,,,0.00,meteohub,2013-01-18 00:22:00,
2013-01-17 17:27:00,40.6,9.3,30.36,WSW,252,2.0,4.0,27,0.00,,,0.00,meteohub,2013-01-18 00:27:00,
2013-01-17 17:32:00,39.7,10.0,30.37,WSW,252,2.0,4.0,29,0.00,,,0.00,meteohub,2013-01-18 00:32:00,
2013-01-17 17:37:00,39.2,10.4,30.37,WSW,250,2.0,5.0,30,0.00,,,0.00,meteohub,2013-01-18 00:37:00,
2013-01-17 17:42:00,38.8,10.8,30.36,WSW,250,1.0,5.0,31,0.00,,,0.00,meteohub,2013-01-18 00:42:00,
2013-01-17 17:52:00,37.6,10.4,30.36,WSW,250,1.0,5.0,32,0.00,,,0.00,meteohub,2013-01-18 00:52:00,
2013-01-17 17:57:00,37.0,10.6,30.36,WSW,250,0.0,3.0,33,0.00,,,0.00,meteohub,2013-01-18 00:57:00,
2013-01-17 18:02:00,36.5,10.8,30.36,WSW,250,1.0,2.0,34,0.00,,,0.00,meteohub,2013-01-18 01:02:00,
2013-01-17 18:07:00,36.0,10.9,30.36,WSW,250,3.0,4.0,35,0.00,,,0.00,meteohub,2013-01-18 01:07:00,
2013-01-17 18:12:00,35.4,11.1,30.36,WSW,250,2.0,5.0,36,0.00,,,0.00,meteohub,2013-01-18 01:12:00,
2013-01-17 18:17:00,35.2,11.5,30.36,WSW,250,2.0,5.0,37,0.00,,,0.00,meteohub,2013-01-18 01:17:00,
2013-01-17 18:22:00,34.9,11.3,30.36,WSW,250,1.0,5.0,37,0.00,,,0.00,meteohub,2013-01-18 01:22:00,
2013-01-17 18:27:00,34.5,10.9,30.36,WSW,250,2.0,3.0,37,0.00,,,0.00,meteohub,2013-01-18 01:27:00,
2013-01-17 18:32:00,34.3,12.0,30.36,WSW,250,0.0,3.0,39,0.00,,,0.00,meteohub,2013-01-18 01:32:00,
2013-01-17 18:37:00,34.0,11.7,30.36,WSW,250,2.0,3.0,39,0.00,,,0.00,meteohub,2013-01-18 01:37:00,
2013-01-17 18:42:00,33.4,11.7,30.36,WSW,250,0.0,3.0,40,0.00,,,0.00,meteohub,2013-01-18 01:42:00,
2013-01-17 18:47:00,33.3,12.0,30.36,WSW,250,0.0,3.0,41,0.00,,,0.00,meteohub,2013-01-18 01:47:00,
2013-01-17 18:52:00,32.9,11.8,30.36,WSW,250,0.0,2.0,41,0.00,,,0.00,meteohub,2013-01-18 01:52:00,
2013-01-17 18:57:00,32.5,12.0,30.36,WSW,250,1.0,2.0,42,0.00,,,0.00,meteohub,2013-01-18 01:57:00,
2013-01-17 19:02:00,32.2,12.2,30.36,WSW,250,0.0,2.0,43,0.00,,,0.00,meteohub,2013-01-18 02:02:00,
2013-01-17 19:07:00,31.8,11.8,30.36,WSW,250,2.0,2.0,43,0.00,,,0.00,meteohub,2013-01-18 02:07:00,
2013-01-17 19:12:00,31.5,11.5,30.36,WSW,250,0.0,3.0,43,0.00,,,0.00,meteohub,2013-01-18 02:12:00,
2013-01-17 19:17:00,31.3,11.8,30.36,WSW,250,0.0,3.0,44,0.00,,,0.00,meteohub,2013-01-18 02:17:00,
2013-01-17 19:22:00,30.9,11.5,30.36,WSW,250,0.0,3.0,44,0.00,,,0.00,meteohub,2013-01-18 02:22:00,
2013-01-17 19:32:00,30.4,12.6,30.36,WSW,250,0.0,3.0,47,0.00,,,0.00,meteohub,2013-01-18 02:32:00,
2013-01-17 19:37:00,30.0,11.7,30.36,WSW,250,2.0,3.0,46,0.00,,,0.00,meteohub,2013-01-18 02:37:00,
2013-01-17 19:42:00,29.7,11.5,30.36,WSW,250,2.0,4.0,46,0.00,,,0.00,meteohub,2013-01-18 02:42:00,
2013-01-17 19:47:00,29.5,10.2,30.36,West,269,3.0,4.0,44,0.00,,,0.00,meteohub,2013-01-18 02:47:00,
2013-01-17 19:52:00,29.3,10.0,30.35,West,269,0.0,6.0,44,0.00,,,0.00,meteohub,2013-01-18 02:52:00,
2013-01-17 19:57:00,29.1,9.3,30.35,West,269,0.0,6.0,43,0.00,,,0.00,meteohub,2013-01-18 02:57:00,
2013-01-17 20:02:00,29.3,8.6,30.35,West,269,3.0,6.0,41,0.00,,,0.00,meteohub,2013-01-18 03:02:00,
2013-01-17 20:07:00,29.5,8.1,30.35,West,269,3.0,5.0,40,0.00,,,0.00,meteohub,2013-01-18 03:07:00,
2013-01-17 20:12:00,29.5,8.1,30.35,West,269,2.0,4.0,40,0.00,,,0.00,meteohub,2013-01-18 03:12:00,
2013-01-17 20:22:00,29.1,7.9,30.35,West,269,4.0,4.0,40,0.00,,,0.00,meteohub,2013-01-18 03:22:00,
2013-01-17 20:32:00,28.9,7.7,30.35,West,269,4.0,5.0,40,0.00,,,0.00,meteohub,2013-01-18 03:32:00,
2013-01-17 20:37:00,28.9,7.7,30.35,WSW,252,3.0,5.0,40,0.00,,,0.00,meteohub,2013-01-18 03:37:00,
2013-01-17 20:42:00,28.9,8.2,30.35,WSW,252,2.0,5.0,41,0.00,,,0.00,meteohub,2013-01-18 03:42:00,
2013-01-17 20:47:00,28.8,8.1,30.35,WSW,252,0.0,5.0,41,0.00,,,0.00,meteohub,2013-01-18 03:47:00,
2013-01-17 20:52:00,28.8,8.1,30.35,WSW,252,0.0,4.0,41,0.00,,,0.00,meteohub,2013-01-18 03:52:00,
2013-01-17 20:57:00,28.2,7.5,30.34,WSW,252,1.0,2.0,41,0.00,,,0.00,meteohub,2013-01-18 03:57:00,
2013-01-17 21:07:00,27.5,7.3,30.34,WSW,252,0.0,2.0,42,0.00,,,0.00,meteohub,2013-01-18 04:07:00,
2013-01-17 21:17:00,27.0,7.0,30.34,WNW,282,6.0,6.0,42,0.00,,,0.00,meteohub,2013-01-18 04:17:00,
2013-01-17 21:22:00,27.0,5.9,30.34,SW,234,4.0,6.0,40,0.00,,,0.00,meteohub,2013-01-18 04:22:00,
2013-01-17 21:27:00,27.7,5.9,30.34,West,271,4.0,6.0,39,0.00,,,0.00,meteohub,2013-01-18 04:27:00,
2013-01-17 21:32:00,28.2,5.9,30.33,SW,236,3.0,6.0,38,0.00,,,0.00,meteohub,2013-01-18 04:32:00,
2013-01-17 21:37:00,28.4,5.4,30.33,SW,236,0.0,6.0,37,0.00,,,0.00,meteohub,2013-01-18 04:37:00,
2013-01-17 21:42:00,28.4,5.4,30.33,SW,236,1.0,5.0,37,0.00,,,0.00,meteohub,2013-01-18 04:42:00,
2013-01-17 21:47:00,28.8,5.7,30.33,WSW,237,1.0,4.0,37,0.00,,,0.00,meteohub,2013-01-18 04:47:00,
2013-01-17 21:52:00,28.8,5.2,30.32,WSW,237,1.0,4.0,36,0.00,,,0.00,meteohub,2013-01-18 04:52:00,
2013-01-17 21:57:00,28.9,4.6,30.32,West,266,1.0,4.0,35,0.00,,,0.00,meteohub,2013-01-18 04:57:00,
2013-01-17 22:03:00,28.9,4.6,30.32,West,266,4.0,6.0,35,0.00,,,0.00,meteohub,2013-01-18 05:03:00,
2013-01-17 22:07:00,28.9,4.1,30.32,West,266,3.0,6.0,34,0.00,,,0.00,meteohub,2013-01-18 05:07:00,
2013-01-17 22:12:00,29.1,3.6,30.32,West,266,3.0,6.0,33,0.00,,,0.00,meteohub,2013-01-18 05:12:00,
2013-01-17 22:17:00,29.8,2.1,30.31,SSW,202,3.0,6.0,30,0.00,,,0.00,meteohub,2013-01-18 05:17:00,
2013-01-17 22:22:00,30.6,1.4,30.31,SW,231,2.0,7.0,28,0.00,,,0.00,meteohub,2013-01-18 05:22:00,
2013-01-17 22:27:00,31.3,1.2,30.31,SW,215,2.0,7.0,27,0.00,,,0.00,meteohub,2013-01-18 05:27:00,
2013-01-17 22:32:00,31.5,2.1,30.31,SW,215,0.0,7.0,28,0.00,,,0.00,meteohub,2013-01-18 05:32:00,
2013-01-17 22:37:00,31.3,1.9,30.31,SW,215,0.0,6.0,28,0.00,,,0.00,meteohub,2013-01-18 05:37:00,
2013-01-17 22:42:00,30.7,2.3,30.31,SW,215,1.0,4.0,29,0.00,,,0.00,meteohub,2013-01-18 05:42:00,
2013-01-17 22:47:00,30.0,2.3,30.31,SW,215,0.0,4.0,30,0.00,,,0.00,meteohub,2013-01-18 05:47:00,
2013-01-17 22:52:00,29.7,2.7,30.31,SW,216,2.0,3.0,31,0.00,,,0.00,meteohub,2013-01-18 05:52:00,
2013-01-17 22:57:00,29.5,1.9,30.30,SW,215,4.0,5.0,30,0.00,,,0.00,meteohub,2013-01-18 05:57:00,
2013-01-17 23:02:00,29.3,1.8,30.30,SSW,205,0.0,6.0,30,0.00,,,0.00,meteohub,2013-01-18 06:02:00,
2013-01-17 23:07:00,29.1,2.3,30.30,SSW,206,2.0,6.0,31,0.00,,,0.00,meteohub,2013-01-18 06:07:00,
2013-01-17 23:12:00,29.3,2.5,30.30,WNW,301,4.0,6.0,31,0.00,,,0.00,meteohub,2013-01-18 06:12:00,
2013-01-17 23:22:00,28.9,2.1,30.30,WNW,300,2.0,8.0,31,0.00,,,0.00,meteohub,2013-01-18 06:22:00,
2013-01-17 23:27:00,28.8,1.9,30.30,WNW,300,2.0,8.0,31,0.00,,,0.00,meteohub,2013-01-18 06:27:00,
2013-01-17 23:32:00,28.4,2.3,30.29,WNW,300,1.0,3.0,32,0.00,,,0.00,meteohub,2013-01-18 06:32:00,
2013-01-17 23:37:00,27.9,1.8,30.29,West,269,4.0,4.0,32,0.00,,,0.00,meteohub,2013-01-18 06:37:00,
2013-01-17 23:42:00,27.9,1.2,30.29,West,271,5.0,6.0,31,0.00,,,0.00,meteohub,2013-01-18 06:42:00,
2013-01-17 23:52:00,28.6,1.0,30.29,West,261,3.0,6.0,30,0.00,,,0.00,meteohub,2013-01-18 06:52:00,
2013-01-17 23:57:00,28.9,0.7,30.29,West,259,4.0,5.0,29,0.00,,,0.00,meteohub,2013-01-18 06:57:00,